Location: Asheville, NC
(35.6000°N, 82.5500°W)
Time: 11:41:32
(UTC-04:00)

UWE-3 - Pass Details

Date: 06 January 2018
Orbit: 585 x 684 km, 97.6° (Epoch: 22 June)

Event Time Altitude Azimuth Distance (km) Brightness Sun altitude
Rises 20:22:49 0° 201° (SSW) 2,812 ? -34.0°
Reaches altitude 10° 20:25:28 10° 219° (SW) 1,928 ? -34.5°
Maximum altitude 20:28:30 19° 266° (W) 1,436 ? -35.1°
Drops below altitude 10° 20:31:36 10° 313° (NW) 1,975 ? -35.7°
Sets 20:34:21 0° 331° (NNW) 2,905 ? -36.3°
